Time,TemperatureF,DewpointF,PressureIn,WindDirection,WindDirectionDegrees,WindSpeedMPH,WindSpeedGustMPH,Humidity,HourlyPrecipIn,Conditions,Clouds,dailyrainin,SoftwareType,DateUTC
2013-03-09 00:00:00,45.1,44.6,30.14,NNE,16,0.0,0.0,98,0.00,,---,0.00,VWS V14.01,2013-03-09 05:00:00,
2013-03-09 00:05:00,45.1,44.6,30.14,NNE,16,0.0,0.0,98,0.00,,---,0.00,VWS V14.01,2013-03-09 05:05:00,
2013-03-09 00:10:00,44.9,44.1,30.14,NNE,16,0.0,0.0,97,0.00,,---,0.00,VWS V14.01,2013-03-09 05:10:00,
2013-03-09 00:15:00,44.8,44.3,30.15,NNE,16,0.0,0.0,98,0.00,,---,0.00,VWS V14.01,2013-03-09 05:15:00,
2013-03-09 00:20:00,44.6,44.1,30.15,NNE,16,0.0,0.0,98,0.00,,---,0.00,VWS V14.01,2013-03-09 05:20:00,
2013-03-09 00:25:00,44.5,44.0,30.15,NNE,16,0.0,0.0,98,0.00,,---,0.00,VWS V14.01,2013-03-09 05:25:00,
2013-03-09 00:30:00,44.3,43.8,30.15,NNE,16,0.0,0.0,98,0.00,,---,0.00,VWS V14.01,2013-03-09 05:30:00,
2013-03-09 00:35:00,44.3,43.8,30.15,NNE,16,0.0,0.0,98,0.00,,---,0.00,VWS V14.01,2013-03-09 05:35:00,
2013-03-09 00:40:00,44.3,43.8,30.15,NNE,16,0.0,0.0,98,0.00,,---,0.00,VWS V14.01,2013-03-09 05:40:00,
2013-03-09 00:45:00,44.2,43.7,30.15,NNE,16,0.0,0.0,98,0.00,,---,0.00,VWS V14.01,2013-03-09 05:45:00,
2013-03-09 00:50:00,44.1,43.6,30.15,NNE,16,0.0,0.0,98,0.00,,---,0.00,VWS V14.01,2013-03-09 05:50:00,
2013-03-09 00:55:00,44.1,43.6,30.15,NNE,16,0.0,0.0,98,0.00,,---,0.00,VWS V14.01,2013-03-09 05:55:00,
2013-03-09 01:00:00,43.9,43.4,30.15,NNE,16,0.0,0.0,98,0.00,,---,0.00,VWS V14.01,2013-03-09 06:00:00,
2013-03-09 01:05:00,43.8,43.3,30.15,NNE,16,0.0,0.0,98,0.00,,---,0.00,VWS V14.01,2013-03-09 06:05:00,
2013-03-09 01:10:00,43.8,43.3,30.15,NNE,16,0.0,0.0,98,0.00,,---,0.00,VWS V14.01,2013-03-09 06:10:00,
2013-03-09 01:16:00,43.6,43.1,30.14,NNE,16,0.0,0.0,98,0.00,,---,0.00,VWS V14.01,2013-03-09 06:16:00,
2013-03-09 01:21:00,43.5,43.2,30.14,NNE,16,0.0,0.0,99,0.00,,---,0.00,VWS V14.01,2013-03-09 06:21:00,
2013-03-09 01:26:00,43.3,42.8,30.14,NNE,16,0.0,0.0,98,0.00,,---,0.00,VWS V14.01,2013-03-09 06:26:00,
2013-03-09 01:30:00,43.3,42.8,30.14,NNE,16,0.0,0.0,98,0.00,,---,0.00,VWS V14.01,2013-03-09 06:30:00,
2013-03-09 01:36:00,43.2,42.9,30.14,NNE,16,0.0,0.0,99,0.00,,---,0.00,VWS V14.01,2013-03-09 06:36:00,
2013-03-09 01:40:00,43.1,42.8,30.14,NNE,16,0.0,0.0,99,0.00,,---,0.00,VWS V14.01,2013-03-09 06:40:00,
2013-03-09 01:46:00,43.1,42.8,30.14,NNE,16,0.0,0.0,99,0.00,,---,0.00,VWS V14.01,2013-03-09 06:46:00,
2013-03-09 01:51:00,43.1,42.8,30.14,NNE,16,0.0,0.0,99,0.00,,---,0.00,VWS V14.01,2013-03-09 06:51:00,
2013-03-09 01:56:00,43.1,42.8,30.14,NNE,16,0.0,0.0,99,0.00,,---,0.00,VWS V14.01,2013-03-09 06:56:00,
2013-03-09 02:00:00,42.2,42.2,30.12,NNE,16,0.0,0.0,100,0.00,,---,0.00,VWS V14.01,2013-03-09 07:00:00,
2013-03-09 02:01:00,43.1,42.8,30.13,NNE,16,0.0,0.0,99,0.00,,---,0.00,VWS V14.01,2013-03-09 07:01:00,
2013-03-09 02:06:00,42.9,42.6,30.13,NNE,16,0.0,0.0,99,0.00,,---,0.00,VWS V14.01,2013-03-09 07:06:00,
2013-03-09 02:11:00,42.9,42.6,30.13,NNE,16,0.0,0.0,99,0.00,,---,0.00,VWS V14.01,2013-03-09 07:11:00,
2013-03-09 02:16:00,42.8,42.5,30.13,NNE,16,0.0,0.0,99,0.00,,---,0.00,VWS V14.01,2013-03-09 07:16:00,
2013-03-09 02:21:00,42.8,42.5,30.13,NNE,16,0.0,0.0,99,0.00,,---,0.00,VWS V14.01,2013-03-09 07:21:00,
2013-03-09 02:26:00,42.6,42.3,30.13,NNE,16,0.0,0.0,99,0.00,,---,0.00,VWS V14.01,2013-03-09 07:26:00,
2013-03-09 02:30:00,42.3,42.3,30.11,NNE,16,0.0,0.0,100,0.00,,---,0.00,VWS V14.01,2013-03-09 07:30:00,
2013-03-09 02:31:00,42.6,42.3,30.13,NNE,16,0.0,0.0,99,0.00,,---,0.00,VWS V14.01,2013-03-09 07:31:00,
2013-03-09 02:36:00,42.6,42.3,30.13,NNE,16,0.0,0.0,99,0.00,,---,0.00,VWS V14.01,2013-03-09 07:36:00,
2013-03-09 02:41:00,42.6,42.3,30.13,NNE,16,0.0,0.0,99,0.00,,---,0.00,VWS V14.01,2013-03-09 07:41:00,
2013-03-09 02:46:00,42.3,42.0,30.13,NNE,16,0.0,0.0,99,0.00,,---,0.00,VWS V14.01,2013-03-09 07:46:00,
2013-03-09 02:51:00,42.3,42.0,30.13,NNE,16,0.0,0.0,99,0.00,,---,0.00,VWS V14.01,2013-03-09 07:51:00,
2013-03-09 02:56:00,42.2,42.2,30.13,NNE,16,0.0,0.0,100,0.00,,---,0.00,VWS V14.01,2013-03-09 07:56:00,
2013-03-09 03:00:00,42.2,42.2,30.10,NNE,16,0.0,0.0,100,0.00,,---,0.00,VWS V14.01,2013-03-09 08:00:00,
2013-03-09 03:01:00,42.2,42.2,30.12,NNE,16,0.0,0.0,100,0.00,,---,0.00,VWS V14.01,2013-03-09 08:01:00,
2013-03-09 03:06:00,42.2,42.2,30.12,NNE,16,0.0,0.0,100,0.00,,---,0.00,VWS V14.01,2013-03-09 08:06:00,
2013-03-09 03:11:00,42.2,42.2,30.12,NNE,16,0.0,0.0,100,0.00,,---,0.00,VWS V14.01,2013-03-09 08:11:00,
2013-03-09 03:16:00,42.2,42.2,30.12,NNE,16,0.0,0.0,100,0.00,,---,0.00,VWS V14.01,2013-03-09 08:16:00,
2013-03-09 03:21:00,42.2,42.2,30.12,NNE,16,0.0,0.0,100,0.00,,---,0.00,VWS V14.01,2013-03-09 08:21:00,
2013-03-09 03:26:00,42.3,42.3,30.12,NNE,16,0.0,0.0,100,0.00,,---,0.00,VWS V14.01,2013-03-09 08:26:00,
2013-03-09 03:30:00,42.1,42.1,30.10,NNE,16,0.0,0.0,100,0.00,,---,0.00,VWS V14.01,2013-03-09 08:30:00,
2013-03-09 03:31:00,42.2,42.2,30.11,NNE,16,0.0,0.0,100,0.00,,---,0.00,VWS V14.01,2013-03-09 08:31:00,
2013-03-09 03:36:00,42.2,42.2,30.11,NNE,16,0.0,0.0,100,0.00,,---,0.00,VWS V14.01,2013-03-09 08:36:00,
2013-03-09 03:41:00,42.2,42.2,30.11,NNE,16,0.0,0.0,100,0.00,,---,0.00,VWS V14.01,2013-03-09 08:41:00,
2013-03-09 03:46:00,42.2,42.2,30.11,NNE,16,0.0,0.0,100,0.00,,---,0.00,VWS V14.01,2013-03-09 08:46:00,
2013-03-09 03:51:00,42.2,42.2,30.11,NNE,16,0.0,0.0,100,0.00,,---,0.00,VWS V14.01,2013-03-09 08:51:00,
2013-03-09 03:56:00,42.2,42.2,30.11,NNE,16,0.0,0.0,100,0.00,,---,0.00,VWS V14.01,2013-03-09 08:56:00,
2013-03-09 04:00:00,41.8,41.8,30.11,NNE,16,0.0,0.0,100,0.00,,---,0.00,VWS V14.01,2013-03-09 09:00:00,
2013-03-09 04:01:00,42.2,42.2,30.10,NNE,16,0.0,0.0,100,0.00,,---,0.00,VWS V14.01,2013-03-09 09:01:00,
2013-03-09 04:06:00,42.2,42.2,30.10,NNE,16,0.0,0.0,100,0.00,,---,0.00,VWS V14.01,2013-03-09 09:06:00,
2013-03-09 04:11:00,42.3,42.3,30.10,NNE,16,0.0,0.0,100,0.00,,---,0.00,VWS V14.01,2013-03-09 09:11:00,
2013-03-09 04:16:00,42.2,42.2,30.10,NNE,16,0.0,0.0,100,0.00,,---,0.00,VWS V14.01,2013-03-09 09:16:00,
2013-03-09 04:21:00,42.1,42.1,30.10,NNE,16,0.0,0.0,100,0.00,,---,0.00,VWS V14.01,2013-03-09 09:21:00,
2013-03-09 04:26:00,42.1,42.1,30.10,NNE,16,0.0,0.0,100,0.00,,---,0.00,VWS V14.01,2013-03-09 09:26:00,
2013-03-09 04:30:00,42.1,42.1,30.12,NNE,16,0.0,0.0,100,0.00,,---,0.00,VWS V14.01,2013-03-09 09:30:00,
2013-03-09 04:31:00,42.1,42.1,30.10,NNE,16,0.0,0.0,100,0.00,,---,0.00,VWS V14.01,2013-03-09 09:31:00,
2013-03-09 04:36:00,41.9,41.9,30.10,NNE,16,0.0,0.0,100,0.00,,---,0.00,VWS V14.01,2013-03-09 09:36:00,
2013-03-09 04:41:00,42.1,42.1,30.10,NNE,16,0.0,0.0,100,0.00,,---,0.00,VWS V14.01,2013-03-09 09:41:00,
2013-03-09 04:46:00,41.9,41.9,30.10,NNE,16,0.0,0.0,100,0.00,,---,0.00,VWS V14.01,2013-03-09 09:46:00,
2013-03-09 04:51:00,41.9,41.9,30.10,NNE,16,0.0,0.0,100,0.00,,---,0.00,VWS V14.01,2013-03-09 09:51:00,
2013-03-09 04:56:00,41.9,41.9,30.10,NNE,16,0.0,0.0,100,0.00,,---,0.00,VWS V14.01,2013-03-09 09:56:00,
2013-03-09 05:00:00,41.8,41.8,30.12,NNE,16,0.0,0.0,100,0.00,,---,0.00,VWS V14.01,2013-03-09 10:00:00,
2013-03-09 05:01:00,41.8,41.8,30.11,NNE,16,0.0,0.0,100,0.00,,---,0.00,VWS V14.01,2013-03-09 10:01:00,
2013-03-09 05:06:00,41.8,41.8,30.11,NNE,16,0.0,0.0,100,0.00,,---,0.00,VWS V14.01,2013-03-09 10:06:00,
2013-03-09 05:11:00,41.9,41.9,30.11,NNE,16,0.0,0.0,100,0.00,,---,0.00,VWS V14.01,2013-03-09 10:11:00,
2013-03-09 05:16:00,41.9,41.9,30.11,NNE,16,0.0,0.0,100,0.00,,---,0.00,VWS V14.01,2013-03-09 10:16:00,
2013-03-09 05:21:00,41.9,41.9,30.11,NNE,16,0.0,0.0,100,0.00,,---,0.00,VWS V14.01,2013-03-09 10:21:00,
2013-03-09 05:26:00,42.1,42.1,30.11,NNE,16,0.0,0.0,100,0.00,,---,0.00,VWS V14.01,2013-03-09 10:26:00,
2013-03-09 05:30:00,41.6,41.6,30.13,NNE,16,0.0,0.0,100,0.00,,---,0.00,VWS V14.01,2013-03-09 10:30:00,
2013-03-09 05:31:00,42.1,42.1,30.12,NNE,16,0.0,0.0,100,0.00,,---,0.00,VWS V14.01,2013-03-09 10:31:00,
2013-03-09 05:36:00,41.9,41.9,30.12,NNE,16,0.0,0.0,100,0.00,,---,0.00,VWS V14.01,2013-03-09 10:36:00,
2013-03-09 05:41:00,41.9,41.9,30.12,NNE,16,0.0,0.0,100,0.00,,---,0.00,VWS V14.01,2013-03-09 10:41:00,
2013-03-09 05:46:00,41.9,41.9,30.12,NNE,16,0.0,0.0,100,0.00,,---,0.00,VWS V14.01,2013-03-09 10:46:00,
2013-03-09 05:51:00,41.8,41.8,30.12,NNE,16,0.0,0.0,100,0.00,,---,0.00,VWS V14.01,2013-03-09 10:51:00,
2013-03-09 05:56:00,41.8,41.8,30.12,NNE,16,0.0,0.0,100,0.00,,---,0.00,VWS V14.01,2013-03-09 10:56:00,
2013-03-09 06:00:00,41.8,41.8,30.13,NNE,16,0.0,0.0,100,0.00,,---,0.00,VWS V14.01,2013-03-09 11:00:00,
2013-03-09 06:01:00,41.8,41.8,30.12,NNE,16,0.0,0.0,100,0.00,,---,0.00,VWS V14.01,2013-03-09 11:01:00,
2013-03-09 06:06:00,41.8,41.8,30.12,NNE,16,0.0,0.0,100,0.00,,---,0.00,VWS V14.01,2013-03-09 11:06:00,
2013-03-09 06:11:00,41.8,41.8,30.12,NNE,16,0.0,0.0,100,0.00,,---,0.00,VWS V14.01,2013-03-09 11:11:00,
2013-03-09 06:16:00,41.6,41.6,30.13,NNE,16,0.0,0.0,100,0.00,,---,0.00,VWS V14.01,2013-03-09 11:16:00,
2013-03-09 06:21:00,41.6,41.6,30.13,NNE,16,0.0,0.0,100,0.00,,---,0.00,VWS V14.01,2013-03-09 11:21:00,
2013-03-09 06:26:00,41.6,41.6,30.13,NNE,16,0.0,0.0,100,0.00,,---,0.00,VWS V14.01,2013-03-09 11:26:00,
2013-03-09 06:30:00,44.1,44.1,30.13,NNE,16,0.0,0.0,100,0.00,,---,0.00,VWS V14.01,2013-03-09 11:30:00,
2013-03-09 06:31:00,41.6,41.6,30.13,NNE,16,0.0,0.0,100,0.00,,---,0.00,VWS V14.01,2013-03-09 11:31:00,
2013-03-09 06:36:00,41.5,41.5,30.13,NNE,16,0.0,0.0,100,0.00,,---,0.00,VWS V14.01,2013-03-09 11:36:00,
2013-03-09 06:41:00,41.3,41.3,30.13,NNE,16,0.0,0.0,100,0.00,,---,0.00,VWS V14.01,2013-03-09 11:41:00,
2013-03-09 06:46:00,41.2,41.2,30.13,NNE,16,0.0,0.0,100,0.00,,---,0.00,VWS V14.01,2013-03-09 11:46:00,
2013-03-09 06:51:00,41.2,41.2,30.13,NNE,16,0.0,0.0,100,0.00,,---,0.00,VWS V14.01,2013-03-09 11:51:00,
2013-03-09 06:56:00,41.5,41.5,30.13,NNE,16,0.0,0.0,100,0.00,,---,0.00,VWS V14.01,2013-03-09 11:56:00,
2013-03-09 07:00:00,52.0,48.9,30.15,North,357,0.0,3.0,89,0.00,,---,0.00,VWS V14.01,2013-03-09 12:00:00,
2013-03-09 07:01:00,41.8,41.8,30.13,NNE,16,0.0,0.0,100,0.00,,---,0.00,VWS V14.01,2013-03-09 12:01:00,
2013-03-09 07:06:00,42.2,42.2,30.13,NNE,16,0.0,0.0,100,0.00,,---,0.00,VWS V14.01,2013-03-09 12:06:00,
2013-03-09 07:11:00,42.3,42.3,30.13,NNE,16,0.0,0.0,100,0.00,,---,0.00,VWS V14.01,2013-03-09 12:11:00,
2013-03-09 07:16:00,42.5,42.5,30.13,NNE,16,0.0,0.0,100,0.00,,---,0.00,VWS V14.01,2013-03-09 12:16:00,
2013-03-09 07:21:00,42.8,42.8,30.13,NNE,16,0.0,0.0,100,0.00,,---,0.00,VWS V14.01,2013-03-09 12:21:00,
2013-03-09 07:26:00,43.5,43.5,30.13,NNE,16,0.0,0.0,100,0.00,,---,0.00,VWS V14.01,2013-03-09 12:26:00,
2013-03-09 07:30:00,58.7,46.2,30.17,North,0,1.0,5.0,63,0.00,,---,0.00,VWS V14.01,2013-03-09 12:30:00,
2013-03-09 07:31:00,44.3,44.3,30.13,NNE,16,0.0,0.0,100,0.00,,---,0.00,VWS V14.01,2013-03-09 12:31:00,
2013-03-09 07:36:00,45.2,45.2,30.13,NNE,16,0.0,0.0,100,0.00,,---,0.00,VWS V14.01,2013-03-09 12:36:00,
2013-03-09 07:41:00,46.0,46.0,30.13,NNE,16,0.0,0.0,100,0.00,,---,0.00,VWS V14.01,2013-03-09 12:41:00,
2013-03-09 07:46:00,47.6,47.6,30.14,North,353,0.0,3.0,100,0.00,,---,0.00,VWS V14.01,2013-03-09 12:46:00,
2013-03-09 07:51:00,48.9,48.6,30.14,North,353,0.0,3.0,99,0.00,,---,0.00,VWS V14.01,2013-03-09 12:51:00,
2013-03-09 07:56:00,50.7,49.3,30.14,North,357,0.0,3.0,95,0.00,,---,0.00,VWS V14.01,2013-03-09 12:56:00,
2013-03-09 08:00:00,60.7,45.4,30.18,North,1,0.0,5.0,57,0.00,,---,0.00,VWS V14.01,2013-03-09 13:00:00,
2013-03-09 08:01:00,52.5,48.1,30.15,North,357,0.0,2.0,85,0.00,,---,0.00,VWS V14.01,2013-03-09 13:01:00,
2013-03-09 08:06:00,54.2,47.5,30.15,North,4,0.0,4.0,78,0.00,,---,0.00,VWS V14.01,2013-03-09 13:06:00,
2013-03-09 08:11:00,55.7,47.5,30.15,North,357,0.0,4.0,74,0.00,,---,0.00,VWS V14.01,2013-03-09 13:11:00,
2013-03-09 08:16:00,56.7,46.3,30.16,North,354,5.0,5.0,68,0.00,,---,0.00,VWS V14.01,2013-03-09 13:16:00,
2013-03-09 08:21:00,57.8,45.7,30.16,North,7,0.0,5.0,64,0.00,,---,0.00,VWS V14.01,2013-03-09 13:21:00,
2013-03-09 08:26:00,58.4,45.9,30.16,North,0,0.0,5.0,63,0.00,,---,0.00,VWS V14.01,2013-03-09 13:26:00,
2013-03-09 08:30:00,61.6,45.3,30.18,NNW,342,0.0,5.0,55,0.00,,---,0.00,VWS V14.01,2013-03-09 13:30:00,
2013-03-09 08:31:00,58.9,46.3,30.17,North,0,0.0,1.0,63,0.00,,---,0.00,VWS V14.01,2013-03-09 13:31:00,
2013-03-09 08:36:00,59.2,46.2,30.17,North,0,0.0,1.0,62,0.00,,---,0.00,VWS V14.01,2013-03-09 13:36:00,
2013-03-09 08:41:00,59.6,45.7,30.17,NNE,23,0.0,3.0,60,0.00,,---,0.00,VWS V14.01,2013-03-09 13:41:00,
2013-03-09 08:47:00,59.9,45.5,30.17,North,0,0.0,5.0,59,0.00,,---,0.00,VWS V14.01,2013-03-09 13:47:00,
2013-03-09 08:52:00,60.1,45.7,30.17,North,0,0.0,5.0,59,0.00,,---,0.00,VWS V14.01,2013-03-09 13:52:00,
2013-03-09 08:57:00,60.5,45.2,30.17,NNE,16,1.0,5.0,57,0.00,,---,0.00,VWS V14.01,2013-03-09 13:57:00,
2013-03-09 09:00:00,62.3,45.9,30.19,North,359,0.0,7.0,55,0.00,,---,0.00,VWS V14.01,2013-03-09 14:00:00,
2013-03-09 09:02:00,60.7,44.9,30.18,NW,304,0.0,1.0,56,0.00,,---,0.00,VWS V14.01,2013-03-09 14:02:00,
2013-03-09 09:07:00,61.0,45.7,30.18,NNW,343,0.0,4.0,57,0.00,,---,0.00,VWS V14.01,2013-03-09 14:07:00,
2013-03-09 09:12:00,61.2,45.4,30.18,North,359,3.0,4.0,56,0.00,,---,0.00,VWS V14.01,2013-03-09 14:12:00,
2013-03-09 09:17:00,61.2,45.9,30.18,WNW,302,0.0,5.0,57,0.00,,---,0.00,VWS V14.01,2013-03-09 14:17:00,
2013-03-09 09:22:00,61.3,45.0,30.18,North,1,2.0,5.0,55,0.00,,---,0.00,VWS V14.01,2013-03-09 14:22:00,
2013-03-09 09:27:00,61.5,44.7,30.18,North,3,5.0,5.0,54,0.00,,---,0.00,VWS V14.01,2013-03-09 14:27:00,
2013-03-09 09:30:00,63.1,45.2,30.19,NNW,340,0.0,8.0,52,0.00,,---,0.00,VWS V14.01,2013-03-09 14:30:00,
2013-03-09 09:32:00,61.6,44.8,30.18,North,352,0.0,0.0,54,0.00,,---,0.00,VWS V14.01,2013-03-09 14:32:00,
2013-03-09 09:37:00,61.8,45.0,30.18,North,357,0.0,7.0,54,0.00,,---,0.00,VWS V14.01,2013-03-09 14:37:00,
2013-03-09 09:42:00,61.8,45.5,30.18,North,11,2.0,7.0,55,0.00,,---,0.00,VWS V14.01,2013-03-09 14:42:00,
2013-03-09 09:47:00,62.0,45.7,30.18,South,171,0.0,7.0,55,0.00,,---,0.00,VWS V14.01,2013-03-09 14:47:00,
2013-03-09 09:52:00,62.3,45.5,30.18,NNE,18,2.0,7.0,54,0.00,,---,0.00,VWS V14.01,2013-03-09 14:52:00,
2013-03-09 09:57:00,62.3,45.5,30.18,NNE,23,0.0,7.0,54,0.00,,---,0.00,VWS V14.01,2013-03-09 14:57:00,
2013-03-09 10:00:00,65.0,45.9,30.20,NW,323,0.0,3.0,50,0.00,,---,0.00,VWS V14.01,2013-03-09 15:00:00,
2013-03-09 10:02:00,62.6,46.7,30.19,North,359,0.0,0.0,56,0.00,,---,0.00,VWS V14.01,2013-03-09 15:02:00,
2013-03-09 10:07:00,62.7,45.3,30.19,WNW,296,0.0,4.0,53,0.00,,---,0.00,VWS V14.01,2013-03-09 15:07:00,
2013-03-09 10:12:00,62.7,45.8,30.19,NNE,20,2.0,4.0,54,0.00,,---,0.00,VWS V14.01,2013-03-09 15:12:00,
2013-03-09 10:17:00,62.9,45.5,30.19,NE,49,1.0,4.0,53,0.00,,---,0.00,VWS V14.01,2013-03-09 15:17:00,
2013-03-09 10:22:00,62.9,45.5,30.19,North,8,0.0,4.0,53,0.00,,---,0.00,VWS V14.01,2013-03-09 15:22:00,
2013-03-09 10:27:00,63.1,46.2,30.19,North,4,0.0,4.0,54,0.00,,---,0.00,VWS V14.01,2013-03-09 15:27:00,
2013-03-09 10:30:00,64.7,46.2,30.20,NNE,31,2.0,6.0,51,0.00,,---,0.00,VWS V14.01,2013-03-09 15:30:00,
2013-03-09 10:32:00,63.1,45.7,30.19,NNE,14,0.0,1.0,53,0.00,,---,0.00,VWS V14.01,2013-03-09 15:32:00,
2013-03-09 10:37:00,63.4,46.0,30.19,ENE,71,0.0,1.0,53,0.00,,---,0.00,VWS V14.01,2013-03-09 15:37:00,
2013-03-09 10:42:00,63.9,46.0,30.19,NNE,31,2.0,2.0,52,0.00,,---,0.00,VWS V14.01,2013-03-09 15:42:00,
2013-03-09 10:47:00,63.9,46.0,30.20,NE,51,1.0,3.0,52,0.00,,---,0.00,VWS V14.01,2013-03-09 15:47:00,
2013-03-09 10:52:00,64.2,47.2,30.20,North,0,0.0,3.0,54,0.00,,---,0.00,VWS V14.01,2013-03-09 15:52:00,
2013-03-09 10:57:00,64.7,46.2,30.20,East,85,0.0,3.0,51,0.00,,---,0.00,VWS V14.01,2013-03-09 15:57:00,
2013-03-09 11:00:00,65.3,46.2,30.19,North,352,0.0,6.0,50,0.00,,---,0.00,VWS V14.01,2013-03-09 16:00:00,
2013-03-09 11:02:00,65.2,46.6,30.20,North,353,0.0,1.0,51,0.00,,---,0.00,VWS V14.01,2013-03-09 16:02:00,
2013-03-09 11:07:00,65.2,46.1,30.20,North,10,0.0,5.0,50,0.00,,---,0.00,VWS V14.01,2013-03-09 16:07:00,
2013-03-09 11:12:00,64.7,45.1,30.20,North,0,1.0,6.0,49,0.00,,---,0.00,VWS V14.01,2013-03-09 16:12:00,
2013-03-09 11:17:00,64.7,45.1,30.20,NE,34,0.0,6.0,49,0.00,,---,0.00,VWS V14.01,2013-03-09 16:17:00,
2013-03-09 11:22:00,64.8,46.3,30.20,NNE,25,6.0,6.0,51,0.00,,---,0.00,VWS V14.01,2013-03-09 16:22:00,
2013-03-09 11:27:00,64.7,46.2,30.20,North,353,0.0,6.0,51,0.00,,---,0.00,VWS V14.01,2013-03-09 16:27:00,
2013-03-09 11:30:00,65.2,45.6,30.19,North,350,0.0,6.0,49,0.00,,---,0.00,VWS V14.01,2013-03-09 16:30:00,
2013-03-09 11:32:00,64.5,46.0,30.20,NNE,14,0.0,6.0,51,0.00,,---,0.00,VWS V14.01,2013-03-09 16:32:00,
2013-03-09 11:37:00,64.2,46.2,30.20,North,353,3.0,6.0,52,0.00,,---,0.00,VWS V14.01,2013-03-09 16:37:00,
2013-03-09 11:42:00,64.3,45.8,30.20,NNE,32,0.0,6.0,51,0.00,,---,0.00,VWS V14.01,2013-03-09 16:42:00,
2013-03-09 11:47:00,64.8,46.3,30.20,WNW,299,0.0,6.0,51,0.00,,---,0.00,VWS V14.01,2013-03-09 16:47:00,
2013-03-09 11:52:00,65.5,45.3,30.20,North,4,0.0,6.0,48,0.00,,---,0.00,VWS V14.01,2013-03-09 16:52:00,
2013-03-09 11:57:00,65.3,45.7,30.20,NNE,31,2.0,6.0,49,0.00,,---,0.00,VWS V14.01,2013-03-09 16:57:00,
2013-03-09 12:00:00,64.8,47.8,30.18,North,352,0.0,6.0,54,0.00,,---,0.00,VWS V14.01,2013-03-09 17:00:00,
2013-03-09 12:02:00,65.3,45.7,30.19,NNW,342,3.0,3.0,49,0.00,,---,0.00,VWS V14.01,2013-03-09 17:02:00,
2013-03-09 12:07:00,65.5,46.4,30.19,North,0,0.0,3.0,50,0.00,,---,0.00,VWS V14.01,2013-03-09 17:07:00,
2013-03-09 12:12:00,65.6,46.5,30.19,North,0,0.0,3.0,50,0.00,,---,0.00,VWS V14.01,2013-03-09 17:12:00,
2013-03-09 12:17:00,65.5,45.3,30.19,North,8,0.0,4.0,48,0.00,,---,0.00,VWS V14.01,2013-03-09 17:17:00,
2013-03-09 12:22:00,65.8,46.1,30.19,North,359,2.0,4.0,49,0.00,,---,0.00,VWS V14.01,2013-03-09 17:22:00,
2013-03-09 12:27:00,65.5,45.8,30.19,North,359,0.0,5.0,49,0.00,,---,0.00,VWS V14.01,2013-03-09 17:27:00,
2013-03-09 12:30:00,63.4,48.4,30.17,NNE,13,0.0,6.0,58,0.00,,---,0.00,VWS V14.01,2013-03-09 17:30:00,
2013-03-09 12:32:00,65.2,46.6,30.19,NNE,20,0.0,2.0,51,0.00,,---,0.00,VWS V14.01,2013-03-09 17:32:00,
2013-03-09 12:37:00,65.6,46.5,30.19,NNE,16,0.0,4.0,50,0.00,,---,0.00,VWS V14.01,2013-03-09 17:37:00,
2013-03-09 12:42:00,65.2,46.6,30.19,NNW,347,2.0,6.0,51,0.00,,---,0.00,VWS V14.01,2013-03-09 17:42:00,
2013-03-09 12:47:00,65.0,47.0,30.19,North,0,1.0,6.0,52,0.00,,---,0.00,VWS V14.01,2013-03-09 17:47:00,
2013-03-09 12:52:00,65.2,47.2,30.19,North,0,2.0,6.0,52,0.00,,---,0.00,VWS V14.01,2013-03-09 17:52:00,
2013-03-09 12:57:00,64.8,46.8,30.19,North,357,0.0,6.0,52,0.00,,---,0.00,VWS V14.01,2013-03-09 17:57:00,
2013-03-09 13:00:00,64.2,49.1,30.16,North,359,3.0,10.0,58,0.00,,---,0.00,VWS V14.01,2013-03-09 18:00:00,
2013-03-09 13:02:00,64.8,47.3,30.18,North,0,1.0,3.0,53,0.00,,---,0.00,VWS V14.01,2013-03-09 18:02:00,
2013-03-09 13:07:00,64.3,47.8,30.18,NNW,328,0.0,5.0,55,0.00,,---,0.00,VWS V14.01,2013-03-09 18:07:00,
2013-03-09 13:12:00,64.0,47.5,30.18,NNW,342,4.0,6.0,55,0.00,,---,0.00,VWS V14.01,2013-03-09 18:12:00,
2013-03-09 13:17:00,63.7,47.7,30.17,ENE,76,0.0,6.0,56,0.00,,---,0.00,VWS V14.01,2013-03-09 18:17:00,
2013-03-09 13:22:00,63.5,48.0,30.17,North,4,2.0,6.0,57,0.00,,---,0.00,VWS V14.01,2013-03-09 18:22:00,
2013-03-09 13:27:00,63.4,48.8,30.17,North,0,1.0,6.0,59,0.00,,---,0.00,VWS V14.01,2013-03-09 18:27:00,
2013-03-09 13:30:00,63.5,48.9,30.16,NNW,336,0.0,7.0,59,0.00,,---,0.00,VWS V14.01,2013-03-09 18:30:00,
2013-03-09 13:32:00,63.4,48.4,30.17,NNW,328,0.0,10.0,58,0.00,,---,0.00,VWS V14.01,2013-03-09 18:32:00,
2013-03-09 13:37:00,63.4,48.4,30.17,NNW,343,0.0,10.0,58,0.00,,---,0.00,VWS V14.01,2013-03-09 18:37:00,
2013-03-09 13:42:00,63.4,48.8,30.17,NNW,333,0.0,10.0,59,0.00,,---,0.00,VWS V14.01,2013-03-09 18:42:00,
2013-03-09 13:47:00,63.9,48.4,30.16,North,0,0.0,10.0,57,0.00,,---,0.00,VWS V14.01,2013-03-09 18:47:00,
2013-03-09 13:52:00,64.0,48.5,30.16,NNW,339,0.0,10.0,57,0.00,,---,0.00,VWS V14.01,2013-03-09 18:52:00,
2013-03-09 13:57:00,63.9,48.4,30.16,NNW,333,0.0,10.0,57,0.00,,---,0.00,VWS V14.01,2013-03-09 18:57:00,
2013-03-09 14:00:00,61.5,49.2,30.16,North,350,0.0,8.0,64,0.00,,---,0.00,VWS V14.01,2013-03-09 19:00:00,
2013-03-09 14:02:00,63.7,48.2,30.16,North,0,1.0,5.0,57,0.00,,---,0.00,VWS V14.01,2013-03-09 19:02:00,
2013-03-09 14:07:00,63.7,48.7,30.16,NW,315,2.0,6.0,58,0.00,,---,0.00,VWS V14.01,2013-03-09 19:07:00,
2013-03-09 14:12:00,63.1,49.5,30.16,NNE,23,0.0,6.0,61,0.00,,---,0.00,VWS V14.01,2013-03-09 19:12:00,
2013-03-09 14:17:00,63.4,49.7,30.16,North,0,0.0,7.0,61,0.00,,---,0.00,VWS V14.01,2013-03-09 19:17:00,
2013-03-09 14:22:00,63.2,48.7,30.16,NNE,21,2.0,7.0,59,0.00,,---,0.00,VWS V14.01,2013-03-09 19:22:00,
2013-03-09 14:27:00,63.4,48.8,30.16,NW,308,0.0,7.0,59,0.00,,---,0.00,VWS V14.01,2013-03-09 19:27:00,
2013-03-09 14:30:00,60.7,49.3,30.15,NNW,330,0.0,6.0,66,0.00,,---,0.00,VWS V14.01,2013-03-09 19:30:00,
2013-03-09 14:32:00,63.5,48.9,30.16,North,0,0.0,2.0,59,0.00,,---,0.00,VWS V14.01,2013-03-09 19:32:00,
2013-03-09 14:37:00,62.9,48.8,30.16,North,357,2.0,8.0,60,0.00,,---,0.00,VWS V14.01,2013-03-09 19:37:00,
2013-03-09 14:42:00,62.3,48.7,30.16,NNW,347,0.0,8.0,61,0.00,,---,0.00,VWS V14.01,2013-03-09 19:42:00,
2013-03-09 14:47:00,62.3,48.7,30.16,North,0,3.0,8.0,61,0.00,,---,0.00,VWS V14.01,2013-03-09 19:47:00,
2013-03-09 14:52:00,62.0,48.8,30.16,North,0,3.0,8.0,62,0.00,,---,0.00,VWS V14.01,2013-03-09 19:52:00,
2013-03-09 14:57:00,61.5,48.8,30.16,North,356,1.0,8.0,63,0.00,,---,0.00,VWS V14.01,2013-03-09 19:57:00,
2013-03-09 15:00:00,59.9,49.7,30.15,North,0,5.0,6.0,69,0.00,,---,0.00,VWS V14.01,2013-03-09 20:00:00,
2013-03-09 15:02:00,61.5,49.2,30.16,NW,319,1.0,3.0,64,0.00,,---,0.00,VWS V14.01,2013-03-09 20:02:00,
2013-03-09 15:07:00,61.3,49.0,30.16,NNE,31,0.0,5.0,64,0.00,,---,0.00,VWS V14.01,2013-03-09 20:07:00,
2013-03-09 15:12:00,61.3,49.5,30.16,North,359,0.0,5.0,65,0.00,,---,0.00,VWS V14.01,2013-03-09 20:12:00,
2013-03-09 15:17:00,61.3,49.0,30.16,NNE,25,1.0,5.0,64,0.00,,---,0.00,VWS V14.01,2013-03-09 20:17:00,
2013-03-09 15:22:00,60.7,48.9,30.16,North,8,0.0,6.0,65,0.00,,---,0.00,VWS V14.01,2013-03-09 20:22:00,
2013-03-09 15:27:00,60.7,49.7,30.16,NE,54,0.0,6.0,67,0.00,,---,0.00,VWS V14.01,2013-03-09 20:27:00,
2013-03-09 15:30:00,59.0,50.0,30.16,NNE,13,0.0,7.0,72,0.00,,---,0.00,VWS V14.01,2013-03-09 20:30:00,
2013-03-09 15:32:00,60.5,49.5,30.15,NE,40,2.0,2.0,67,0.00,,---,0.00,VWS V14.01,2013-03-09 20:32:00,
2013-03-09 15:37:00,60.1,49.5,30.15,NNW,344,1.0,5.0,68,0.00,,---,0.00,VWS V14.01,2013-03-09 20:37:00,
2013-03-09 15:42:00,59.9,49.3,30.15,NE,48,0.0,6.0,68,0.00,,---,0.00,VWS V14.01,2013-03-09 20:42:00,
2013-03-09 15:47:00,59.9,49.7,30.15,NNW,344,4.0,6.0,69,0.00,,---,0.00,VWS V14.01,2013-03-09 20:47:00,
2013-03-09 15:52:00,59.8,49.6,30.15,North,356,0.0,6.0,69,0.00,,---,0.00,VWS V14.01,2013-03-09 20:52:00,
2013-03-09 15:57:00,60.1,49.9,30.15,North,8,2.0,6.0,69,0.00,,---,0.00,VWS V14.01,2013-03-09 20:57:00,
2013-03-09 16:00:00,58.7,49.3,30.15,NE,47,0.0,5.0,71,0.00,,---,0.00,VWS V14.01,2013-03-09 21:00:00,
2013-03-09 16:02:00,59.8,49.6,30.15,NNE,18,7.0,7.0,69,0.00,,---,0.00,VWS V14.01,2013-03-09 21:02:00,
2013-03-09 16:07:00,59.5,49.7,30.15,North,3,2.0,7.0,70,0.00,,---,0.00,VWS V14.01,2013-03-09 21:07:00,
2013-03-09 16:12:00,59.5,49.7,30.15,NNW,340,0.0,7.0,70,0.00,,---,0.00,VWS V14.01,2013-03-09 21:12:00,
2013-03-09 16:17:00,59.3,49.5,30.15,North,0,0.0,7.0,70,0.00,,---,0.00,VWS V14.01,2013-03-09 21:17:00,
2013-03-09 16:22:00,59.2,49.8,30.15,North,359,0.0,7.0,71,0.00,,---,0.00,VWS V14.01,2013-03-09 21:22:00,
2013-03-09 16:27:00,59.0,50.0,30.15,NE,52,1.0,7.0,72,0.00,,---,0.00,VWS V14.01,2013-03-09 21:27:00,
2013-03-09 16:30:00,58.0,47.9,30.16,North,0,0.0,4.0,69,0.00,,---,0.00,VWS V14.01,2013-03-09 21:30:00,
2013-03-09 16:32:00,59.0,50.0,30.16,NNE,13,0.0,0.0,72,0.00,,---,0.00,VWS V14.01,2013-03-09 21:32:00,
2013-03-09 16:37:00,58.9,49.9,30.16,NNE,28,0.0,2.0,72,0.00,,---,0.00,VWS V14.01,2013-03-09 21:37:00,
2013-03-09 16:42:00,59.0,50.4,30.16,North,4,0.0,2.0,73,0.00,,---,0.00,VWS V14.01,2013-03-09 21:42:00,
2013-03-09 16:47:00,58.9,49.9,30.16,NE,40,0.0,5.0,72,0.00,,---,0.00,VWS V14.01,2013-03-09 21:47:00,
2013-03-09 16:52:00,58.9,49.9,30.16,North,0,0.0,5.0,72,0.00,,---,0.00,VWS V14.01,2013-03-09 21:52:00,
2013-03-09 16:57:00,58.7,49.3,30.16,NNW,347,0.0,5.0,71,0.00,,---,0.00,VWS V14.01,2013-03-09 21:57:00,
2013-03-09 17:00:00,57.3,46.5,30.16,North,359,0.0,6.0,67,0.00,,---,0.00,VWS V14.01,2013-03-09 22:00:00,
2013-03-09 17:02:00,58.4,49.0,30.15,North,359,0.0,3.0,71,0.00,,---,0.00,VWS V14.01,2013-03-09 22:02:00,
2013-03-09 17:07:00,58.4,49.0,30.15,North,7,0.0,3.0,71,0.00,,---,0.00,VWS V14.01,2013-03-09 22:07:00,
2013-03-09 17:12:00,58.4,48.7,30.15,North,354,0.0,3.0,70,0.00,,---,0.00,VWS V14.01,2013-03-09 22:12:00,
2013-03-09 17:17:00,58.1,48.0,30.16,North,10,0.0,4.0,69,0.00,,---,0.00,VWS V14.01,2013-03-09 22:17:00,
2013-03-09 17:22:00,58.1,48.4,30.16,NNE,27,0.0,4.0,70,0.00,,---,0.00,VWS V14.01,2013-03-09 22:22:00,
2013-03-09 17:27:00,58.1,48.0,30.16,North,6,0.0,4.0,69,0.00,,---,0.00,VWS V14.01,2013-03-09 22:27:00,
2013-03-09 17:30:00,56.6,46.9,30.16,North,357,0.0,0.0,70,0.00,,---,0.00,VWS V14.01,2013-03-09 22:30:00,
2013-03-09 17:32:00,58.0,47.5,30.16,NNE,20,0.0,2.0,68,0.00,,---,0.00,VWS V14.01,2013-03-09 22:32:00,
2013-03-09 17:37:00,58.0,47.9,30.16,NNE,18,0.0,2.0,69,0.00,,---,0.00,VWS V14.01,2013-03-09 22:37:00,
2013-03-09 17:42:00,58.0,47.5,30.16,NNW,339,0.0,6.0,68,0.00,,---,0.00,VWS V14.01,2013-03-09 22:42:00,
2013-03-09 17:47:00,57.6,45.9,30.15,North,354,0.0,6.0,65,0.00,,---,0.00,VWS V14.01,2013-03-09 22:47:00,
2013-03-09 17:52:00,57.5,46.6,30.15,North,353,0.0,6.0,67,0.00,,---,0.00,VWS V14.01,2013-03-09 22:52:00,
2013-03-09 17:57:00,57.3,46.5,30.15,North,353,0.0,6.0,67,0.00,,---,0.00,VWS V14.01,2013-03-09 22:57:00,
2013-03-09 18:00:00,55.7,47.2,30.16,North,357,0.0,1.0,73,0.00,,---,0.00,VWS V14.01,2013-03-09 23:00:00,
2013-03-09 18:02:00,57.2,46.4,30.16,North,357,0.0,0.0,67,0.00,,---,0.00,VWS V14.01,2013-03-09 23:02:00,
2013-03-09 18:07:00,57.0,46.6,30.16,North,359,0.0,0.0,68,0.00,,---,0.00,VWS V14.01,2013-03-09 23:07:00,
2013-03-09 18:12:00,57.0,46.6,30.16,North,357,0.0,0.0,68,0.00,,---,0.00,VWS V14.01,2013-03-09 23:12:00,
2013-03-09 18:17:00,56.9,46.8,30.16,North,359,0.0,0.0,69,0.00,,---,0.00,VWS V14.01,2013-03-09 23:17:00,
2013-03-09 18:22:00,56.7,46.7,30.16,North,357,0.0,0.0,69,0.00,,---,0.00,VWS V14.01,2013-03-09 23:22:00,
2013-03-09 18:27:00,56.6,46.6,30.16,North,359,0.0,0.0,69,0.00,,---,0.00,VWS V14.01,2013-03-09 23:27:00,
2013-03-09 18:30:00,55.6,46.7,30.16,NNE,17,0.0,0.0,72,0.00,,---,0.00,VWS V14.01,2013-03-09 23:30:00,
2013-03-09 18:32:00,56.5,47.2,30.16,North,359,0.0,0.0,71,0.00,,---,0.00,VWS V14.01,2013-03-09 23:32:00,
2013-03-09 18:37:00,56.3,47.4,30.16,North,359,0.0,0.0,72,0.00,,---,0.00,VWS V14.01,2013-03-09 23:37:00,
2013-03-09 18:42:00,56.2,47.3,30.16,North,359,0.0,0.0,72,0.00,,---,0.00,VWS V14.01,2013-03-09 23:42:00,
2013-03-09 18:47:00,56.0,47.1,30.16,North,359,0.0,0.0,72,0.00,,---,0.00,VWS V14.01,2013-03-09 23:47:00,
2013-03-09 18:52:00,55.9,47.4,30.16,North,359,0.0,1.0,73,0.00,,---,0.00,VWS V14.01,2013-03-09 23:52:00,
2013-03-09 18:57:00,55.7,47.2,30.16,North,359,0.0,1.0,73,0.00,,---,0.00,VWS V14.01,2013-03-09 23:57:00,
2013-03-09 19:00:00,55.7,47.2,30.16,NNE,17,0.0,0.0,73,0.00,,---,0.00,VWS V14.01,2013-03-10 00:00:00,
2013-03-09 19:03:00,55.7,47.2,30.16,North,359,0.0,0.0,73,0.00,,---,0.00,VWS V14.01,2013-03-10 00:03:00,
2013-03-09 19:08:00,55.7,47.2,30.16,North,357,0.0,0.0,73,0.00,,---,0.00,VWS V14.01,2013-03-10 00:08:00,
2013-03-09 19:13:00,55.6,47.1,30.16,NNE,17,0.0,0.0,73,0.00,,---,0.00,VWS V14.01,2013-03-10 00:13:00,
2013-03-09 19:18:00,55.6,47.1,30.16,NNE,18,0.0,0.0,73,0.00,,---,0.00,VWS V14.01,2013-03-10 00:18:00,
2013-03-09 19:23:00,55.6,47.1,30.16,NNE,17,0.0,0.0,73,0.00,,---,0.00,VWS V14.01,2013-03-10 00:23:00,
2013-03-09 19:28:00,55.6,46.7,30.16,NNE,17,0.0,0.0,72,0.00,,---,0.00,VWS V14.01,2013-03-10 00:28:00,
2013-03-09 19:30:00,55.9,48.5,30.17,NNE,17,0.0,1.0,76,0.00,,---,0.00,VWS V14.01,2013-03-10 00:30:00,
2013-03-09 19:33:00,55.4,46.5,30.16,NNE,17,0.0,0.0,72,0.00,,---,0.00,VWS V14.01,2013-03-10 00:33:00,
2013-03-09 19:38:00,55.4,46.9,30.16,NNE,17,0.0,0.0,73,0.00,,---,0.00,VWS V14.01,2013-03-10 00:38:00,
2013-03-09 19:43:00,55.4,46.9,30.16,NNE,17,0.0,0.0,73,0.00,,---,0.00,VWS V14.01,2013-03-10 00:43:00,
2013-03-09 19:48:00,55.6,47.1,30.16,NNE,17,0.0,0.0,73,0.00,,---,0.00,VWS V14.01,2013-03-10 00:48:00,
2013-03-09 19:53:00,55.6,47.1,30.16,NNE,17,0.0,0.0,73,0.00,,---,0.00,VWS V14.01,2013-03-10 00:53:00,
2013-03-09 19:58:00,55.7,47.2,30.16,NNE,17,0.0,0.0,73,0.00,,---,0.00,VWS V14.01,2013-03-10 00:58:00,
2013-03-09 20:00:00,55.9,49.5,30.17,NNE,17,0.0,0.0,79,0.00,,---,0.00,VWS V14.01,2013-03-10 01:00:00,
2013-03-09 20:03:00,55.9,47.4,30.16,NNE,17,0.0,0.0,73,0.00,,---,0.00,VWS V14.01,2013-03-10 01:03:00,
2013-03-09 20:08:00,55.9,47.4,30.16,NNE,17,0.0,1.0,73,0.00,,---,0.00,VWS V14.01,2013-03-10 01:08:00,
2013-03-09 20:13:00,55.9,47.7,30.16,NNE,17,0.0,1.0,74,0.00,,---,0.00,VWS V14.01,2013-03-10 01:13:00,
2013-03-09 20:18:00,55.9,47.7,30.16,NNE,17,0.0,1.0,74,0.00,,---,0.00,VWS V14.01,2013-03-10 01:18:00,
2013-03-09 20:23:00,55.9,48.1,30.16,NNE,17,0.0,1.0,75,0.00,,---,0.00,VWS V14.01,2013-03-10 01:23:00,
2013-03-09 20:28:00,55.9,48.1,30.16,NNE,17,0.0,1.0,75,0.00,,---,0.00,VWS V14.01,2013-03-10 01:28:00,
2013-03-09 20:30:00,55.3,49.9,30.16,NNE,17,0.0,0.0,82,0.00,,---,0.00,VWS V14.01,2013-03-10 01:30:00,
2013-03-09 20:33:00,55.9,48.5,30.17,NNE,17,0.0,0.0,76,0.00,,---,0.00,VWS V14.01,2013-03-10 01:33:00,
2013-03-09 20:38:00,56.0,48.9,30.17,NNE,17,0.0,0.0,77,0.00,,---,0.00,VWS V14.01,2013-03-10 01:38:00,
2013-03-09 20:43:00,56.0,48.9,30.17,NNE,17,0.0,0.0,77,0.00,,---,0.00,VWS V14.01,2013-03-10 01:43:00,
2013-03-09 20:48:00,56.0,49.2,30.17,NNE,17,0.0,0.0,78,0.00,,---,0.00,VWS V14.01,2013-03-10 01:48:00,
2013-03-09 20:53:00,56.0,49.6,30.17,NNE,17,0.0,0.0,79,0.00,,---,0.00,VWS V14.01,2013-03-10 01:53:00,
2013-03-09 20:58:00,55.9,49.5,30.17,NNE,17,0.0,0.0,79,0.00,,---,0.00,VWS V14.01,2013-03-10 01:58:00,
2013-03-09 21:00:00,55.4,49.3,30.15,NNE,17,0.0,0.0,80,0.00,,---,0.00,VWS V14.01,2013-03-10 02:00:00,
2013-03-09 21:03:00,55.7,49.6,30.17,NNE,17,0.0,0.0,80,0.00,,---,0.00,VWS V14.01,2013-03-10 02:03:00,
2013-03-09 21:08:00,55.6,49.5,30.17,NNE,17,0.0,0.0,80,0.00,,---,0.00,VWS V14.01,2013-03-10 02:08:00,
2013-03-09 21:14:00,55.4,49.3,30.17,NNE,17,0.0,0.0,80,0.00,,---,0.00,VWS V14.01,2013-03-10 02:14:00,
2013-03-09 21:19:00,55.3,49.6,30.17,NNE,17,0.0,0.0,81,0.00,,---,0.00,VWS V14.01,2013-03-10 02:19:00,
2013-03-09 21:24:00,55.1,49.7,30.17,NNE,17,0.0,0.0,82,0.00,,---,0.00,VWS V14.01,2013-03-10 02:24:00,
2013-03-09 21:28:00,55.3,49.9,30.17,NNE,17,0.0,0.0,82,0.00,,---,0.00,VWS V14.01,2013-03-10 02:28:00,
2013-03-09 21:30:00,55.6,49.5,30.15,NNE,17,0.0,0.0,80,0.00,,---,0.00,VWS V14.01,2013-03-10 02:30:00,
2013-03-09 21:34:00,55.4,49.7,30.16,NNE,17,0.0,0.0,81,0.00,,---,0.00,VWS V14.01,2013-03-10 02:34:00,
2013-03-09 21:39:00,55.4,49.7,30.16,NNE,17,0.0,0.0,81,0.00,,---,0.00,VWS V14.01,2013-03-10 02:39:00,
2013-03-09 21:44:00,55.4,49.7,30.16,NNE,17,0.0,0.0,81,0.00,,---,0.00,VWS V14.01,2013-03-10 02:44:00,
2013-03-09 21:49:00,55.4,49.3,30.15,NNE,17,0.0,0.0,80,0.00,,---,0.00,VWS V14.01,2013-03-10 02:49:00,
2013-03-09 21:54:00,55.4,49.3,30.15,NNE,17,0.0,0.0,80,0.00,,---,0.00,VWS V14.01,2013-03-10 02:54:00,
2013-03-09 21:59:00,55.4,49.3,30.15,NNE,17,0.0,0.0,80,0.00,,---,0.00,VWS V14.01,2013-03-10 02:59:00,
2013-03-09 22:00:00,55.0,49.9,30.16,NNE,17,0.0,0.0,83,0.00,,---,0.00,VWS V14.01,2013-03-10 03:00:00,
2013-03-09 22:04:00,55.6,49.5,30.15,NNE,17,0.0,0.0,80,0.00,,---,0.00,VWS V14.01,2013-03-10 03:04:00,
2013-03-09 22:09:00,55.6,49.5,30.15,NNE,17,0.0,0.0,80,0.00,,---,0.00,VWS V14.01,2013-03-10 03:09:00,
2013-03-09 22:14:00,55.6,49.5,30.15,NNE,17,0.0,0.0,80,0.00,,---,0.00,VWS V14.01,2013-03-10 03:14:00,
2013-03-09 22:19:00,55.6,49.5,30.15,NNE,17,0.0,0.0,80,0.00,,---,0.00,VWS V14.01,2013-03-10 03:19:00,
2013-03-09 22:24:00,55.6,49.5,30.15,NNE,17,0.0,0.0,80,0.00,,---,0.00,VWS V14.01,2013-03-10 03:24:00,
2013-03-09 22:29:00,55.6,49.5,30.15,NNE,17,0.0,0.0,80,0.00,,---,0.00,VWS V14.01,2013-03-10 03:29:00,
2013-03-09 22:30:00,54.5,50.7,30.14,North,0,0.0,0.0,87,0.00,,---,0.00,VWS V14.01,2013-03-10 03:30:00,
2013-03-09 22:34:00,55.7,50.0,30.15,NNE,17,0.0,0.0,81,0.00,,---,0.00,VWS V14.01,2013-03-10 03:34:00,
2013-03-09 22:39:00,55.7,50.0,30.15,NNE,17,0.0,0.0,81,0.00,,---,0.00,VWS V14.01,2013-03-10 03:39:00,
2013-03-09 22:44:00,55.7,50.0,30.15,NNE,17,0.0,0.0,81,0.00,,---,0.00,VWS V14.01,2013-03-10 03:44:00,
2013-03-09 22:49:00,55.6,50.2,30.15,NNE,17,0.0,0.0,82,0.00,,---,0.00,VWS V14.01,2013-03-10 03:49:00,
2013-03-09 22:54:00,55.4,50.0,30.15,NNE,17,0.0,0.0,82,0.00,,---,0.00,VWS V14.01,2013-03-10 03:54:00,
2013-03-09 22:59:00,55.1,50.0,30.15,NNE,17,0.0,0.0,83,0.00,,---,0.00,VWS V14.01,2013-03-10 03:59:00,
2013-03-09 23:00:00,54.2,51.0,30.13,NNE,17,0.0,1.0,89,0.00,,---,0.00,VWS V14.01,2013-03-10 04:00:00,
2013-03-09 23:04:00,54.8,50.1,30.16,NNE,17,0.0,0.0,84,0.00,,---,0.00,VWS V14.01,2013-03-10 04:04:00,
2013-03-09 23:09:00,54.5,50.1,30.16,NNE,17,0.0,0.0,85,0.00,,---,0.00,VWS V14.01,2013-03-10 04:09:00,
2013-03-09 23:14:00,54.5,50.4,30.16,NNE,17,0.0,0.0,86,0.00,,---,0.00,VWS V14.01,2013-03-10 04:14:00,
2013-03-09 23:19:00,54.5,50.4,30.15,NNE,17,0.0,0.0,86,0.00,,---,0.00,VWS V14.01,2013-03-10 04:19:00,
2013-03-09 23:24:00,54.5,50.7,30.15,NNE,17,0.0,0.0,87,0.00,,---,0.00,VWS V14.01,2013-03-10 04:24:00,
2013-03-09 23:29:00,54.5,50.7,30.15,NNE,17,0.0,0.0,87,0.00,,---,0.00,VWS V14.01,2013-03-10 04:29:00,
2013-03-09 23:30:00,53.1,50.5,30.13,NNE,17,0.0,0.0,91,0.00,,---,0.00,VWS V14.01,2013-03-10 04:30:00,
2013-03-09 23:34:00,54.7,51.2,30.14,NNE,17,0.0,0.0,88,0.00,,---,0.00,VWS V14.01,2013-03-10 04:34:00,
2013-03-09 23:39:00,54.7,51.2,30.14,NNE,17,0.0,0.0,88,0.00,,---,0.00,VWS V14.01,2013-03-10 04:39:00,
2013-03-09 23:44:00,54.7,51.2,30.14,NNE,17,0.0,0.0,88,0.00,,---,0.00,VWS V14.01,2013-03-10 04:44:00,
2013-03-09 23:49:00,54.7,51.5,30.13,NNE,17,0.0,1.0,89,0.00,,---,0.00,VWS V14.01,2013-03-10 04:49:00,
2013-03-09 23:54:00,54.5,51.3,30.13,NNE,17,0.0,1.0,89,0.00,,---,0.00,VWS V14.01,2013-03-10 04:54:00,
2013-03-09 23:59:00,54.4,51.2,30.13,NNE,17,0.0,1.0,89,0.00,,---,0.00,VWS V14.01,2013-03-10 04:59:00,